MAC725 GMMW-GMTT

Flight info

Callsign MAC725
Flight time 0h 32m
Altitude 18000
Route ALM N726 NARMI
Aircraft A320/M-SDE3FGHIRWY/LB1

Departure

Time 2026-04-26 18:53
Airport Nador Al Aaroui International Airport (GMMW)

Arrival

Time 2026-04-26 19:26
Airport Tangier Ibn Battuta Airport (GMTT)
Time Latitude Longitude Altitude Speed Heading
2026-04-26 18:53 35.08039 -3.12111 11058 ft 388 kts 282°
2026-04-26 18:53 35.08726 -3.15841 11967 ft 395 kts 282°
2026-04-26 18:53 35.09302 -3.19144 12812 ft 400 kts 281°
2026-04-26 18:54 35.09837 -3.22441 13643 ft 404 kts 280°
2026-04-26 18:54 35.10362 -3.25890 14365 ft 409 kts 279°
2026-04-26 18:54 35.10867 -3.29359 15032 ft 414 kts 279°
2026-04-26 18:54 35.11375 -3.32900 15666 ft 418 kts 279°
2026-04-26 18:55 35.11882 -3.36426 16272 ft 422 kts 280°
2026-04-26 18:55 35.12396 -3.39969 16838 ft 427 kts 280°
2026-04-26 18:55 35.12925 -3.43556 17359 ft 431 kts 280°
2026-04-26 18:55 35.13461 -3.47173 17839 ft 435 kts 281°
2026-04-26 18:56 35.14033 -3.51016 18025 ft 446 kts 281°
2026-04-26 18:56 35.14594 -3.54805 18045 ft 459 kts 280°
2026-04-26 18:56 35.15158 -3.58613 18303 ft 456 kts 281°
2026-04-26 18:56 35.15717 -3.62390 17843 ft 442 kts 280°
2026-04-26 18:57 35.16256 -3.66081 17840 ft 439 kts 280°
2026-04-26 18:57 35.16607 -3.68509 17843 ft 438 kts 280°
2026-04-26 18:57 35.17316 -3.73409 17840 ft 437 kts 280°
2026-04-26 18:57 35.17847 -3.77076 17842 ft 437 kts 280°
2026-04-26 18:58 35.18376 -3.80736 17843 ft 437 kts 280°
2026-04-26 18:58 35.18998 -3.84373 17838 ft 437 kts 286°
2026-04-26 18:58 35.19968 -3.87896 17844 ft 437 kts 289°
2026-04-26 18:58 35.20964 -3.91403 17842 ft 437 kts 289°
2026-04-26 18:59 35.21967 -3.94933 17841 ft 437 kts 289°
2026-04-26 18:59 35.22965 -3.98448 17842 ft 438 kts 289°
2026-04-26 18:59 35.23960 -4.01966 17846 ft 438 kts 289°
2026-04-26 18:59 35.24948 -4.05471 17845 ft 438 kts 289°
2026-04-26 19:00 35.25940 -4.08990 17848 ft 438 kts 289°
2026-04-26 19:00 35.26941 -4.12542 17846 ft 438 kts 289°
2026-04-26 19:00 35.27933 -4.16070 17849 ft 438 kts 289°
2026-04-26 19:00 35.28922 -4.19600 17851 ft 438 kts 289°
2026-04-26 19:01 35.29910 -4.23132 17854 ft 438 kts 289°
2026-04-26 19:01 35.30898 -4.26663 17854 ft 438 kts 289°
2026-04-26 19:01 35.31885 -4.30189 17855 ft 438 kts 289°
2026-04-26 19:01 35.32874 -4.33722 17858 ft 439 kts 289°
2026-04-26 19:02 35.33862 -4.37263 17850 ft 439 kts 289°
2026-04-26 19:02 35.34848 -4.40805 17857 ft 439 kts 289°
2026-04-26 19:02 35.35830 -4.44342 17860 ft 439 kts 289°
2026-04-26 19:02 35.36480 -4.46687 17849 ft 439 kts 288°
2026-04-26 19:03 35.37794 -4.51431 17859 ft 440 kts 288°
2026-04-26 19:03 35.38775 -4.54986 17861 ft 440 kts 288°
2026-04-26 19:03 35.39750 -4.58521 17865 ft 440 kts 288°
2026-04-26 19:03 35.40735 -4.62086 17866 ft 440 kts 288°
2026-04-26 19:04 35.41699 -4.65575 17862 ft 440 kts 288°
2026-04-26 19:04 35.42676 -4.69128 17867 ft 440 kts 288°
2026-04-26 19:04 35.43656 -4.72697 17870 ft 440 kts 288°
2026-04-26 19:04 35.44614 -4.76229 17886 ft 440 kts 287°
2026-04-26 19:05 35.46145 -4.83311 18018 ft 422 kts 271°
2026-04-26 19:05 35.46115 -4.86726 17842 ft 406 kts 270°
2026-04-26 19:05 35.46112 -4.90211 16776 ft 412 kts 269°
2026-04-26 19:06 35.46097 -4.93769 15743 ft 419 kts 269°
2026-04-26 19:06 35.46093 -4.97332 15045 ft 417 kts 269°
2026-04-26 19:06 35.46098 -5.00865 14409 ft 412 kts 269°
2026-04-26 19:06 35.46106 -5.04413 13768 ft 408 kts 269°
2026-04-26 19:07 35.46118 -5.07871 13079 ft 404 kts 269°
2026-04-26 19:07 35.46358 -5.11267 12520 ft 397 kts 282°
2026-04-26 19:07 35.47307 -5.14398 12269 ft 386 kts 296°
2026-04-26 19:07 35.48510 -5.17052 12035 ft 374 kts 297°
2026-04-26 19:08 35.49795 -5.19840 11780 ft 364 kts 298°
2026-04-26 19:08 35.51044 -5.22527 11529 ft 360 kts 298°
2026-04-26 19:08 35.52294 -5.25204 11289 ft 359 kts 298°
2026-04-26 19:08 35.53534 -5.27866 11044 ft 358 kts 298°
2026-04-26 19:09 35.54770 -5.30530 10803 ft 357 kts 298°
2026-04-26 19:09 35.55997 -5.33180 10550 ft 357 kts 298°
2026-04-26 19:09 35.57221 -5.35830 10329 ft 356 kts 298°
2026-04-26 19:09 35.58442 -5.38470 10097 ft 355 kts 298°
2026-04-26 19:10 35.59647 -5.41076 9916 ft 344 kts 298°
2026-04-26 19:10 35.60819 -5.43613 9779 ft 330 kts 298°
2026-04-26 19:10 35.61932 -5.46024 9653 ft 318 kts 298°
2026-04-26 19:10 35.63000 -5.48356 9514 ft 306 kts 296°
2026-04-26 19:11 35.63847 -5.50711 9393 ft 295 kts 288°
2026-04-26 19:11 35.64249 -5.52296 9310 ft 292 kts 284°
2026-04-26 19:11 35.64802 -5.54696 9164 ft 291 kts 284°
2026-04-26 19:11 35.65414 -5.57332 9028 ft 290 kts 284°
2026-04-26 19:12 35.65783 -5.58917 8940 ft 290 kts 284°
2026-04-26 19:12 35.66338 -5.61305 8810 ft 290 kts 284°
2026-04-26 19:12 35.66890 -5.63691 8647 ft 290 kts 284°
2026-04-26 19:12 35.67449 -5.66105 8511 ft 290 kts 284°
2026-04-26 19:13 35.68002 -5.68488 8385 ft 290 kts 284°
2026-04-26 19:13 35.68556 -5.70872 8255 ft 289 kts 284°
2026-04-26 19:13 35.69113 -5.73281 8132 ft 289 kts 284°
2026-04-26 19:13 35.69667 -5.75668 8003 ft 289 kts 285°
2026-04-26 19:14 35.70219 -5.78049 7874 ft 289 kts 285°
2026-04-26 19:14 35.70772 -5.80431 7761 ft 289 kts 285°
2026-04-26 19:14 35.71312 -5.82768 7623 ft 289 kts 284°
2026-04-26 19:14 35.71646 -5.84223 7561 ft 289 kts 285°
2026-04-26 19:15 35.72380 -5.87403 7394 ft 288 kts 285°
2026-04-26 19:15 35.72887 -5.89808 7268 ft 288 kts 278°
2026-04-26 19:15 35.73034 -5.92251 7153 ft 286 kts 266°
2026-04-26 19:15 35.72777 -5.94678 7037 ft 285 kts 255°
2026-04-26 19:16 35.72237 -5.97028 6913 ft 284 kts 252°
2026-04-26 19:16 35.71698 -5.99333 6801 ft 283 kts 252°
2026-04-26 19:16 35.71154 -6.01674 6673 ft 283 kts 253°
2026-04-26 19:16 35.70607 -6.04031 6560 ft 283 kts 252°
2026-04-26 19:17 35.70071 -6.06334 6443 ft 282 kts 252°
2026-04-26 19:17 35.69524 -6.08685 6272 ft 280 kts 252°
2026-04-26 19:17 35.68990 -6.10990 5864 ft 279 kts 253°
2026-04-26 19:17 35.68467 -6.13284 5463 ft 278 kts 256°
2026-04-26 19:18 35.68427 -6.15635 5076 ft 276 kts 282°
2026-04-26 19:18 35.69229 -6.17757 4687 ft 275 kts 309°
2026-04-26 19:18 35.70697 -6.19218 4300 ft 270 kts 337°
2026-04-26 19:18 35.72454 -6.19739 4187 ft 253 kts
2026-04-26 19:19 35.74149 -6.19705 4037 ft 234 kts
2026-04-26 19:19 35.75662 -6.19198 3929 ft 224 kts 36°
2026-04-26 19:19 35.76659 -6.17796 3922 ft 217 kts 70°
2026-04-26 19:19 35.76828 -6.15979 3924 ft 215 kts 103°
2026-04-26 19:20 35.76243 -6.14296 3869 ft 216 kts 117°
2026-04-26 19:20 35.75776 -6.13211 3677 ft 208 kts 116°
2026-04-26 19:20 35.74901 -6.11178 3023 ft 197 kts 115°
2026-04-26 19:20 35.74596 -6.09633 2675 ft 180 kts 94°
2026-04-26 19:21 35.74556 -6.08143 2492 ft 165 kts 92°
2026-04-26 19:21 35.74512 -6.06821 2411 ft 147 kts 94°
2026-04-26 19:21 35.74439 -6.05596 2198 ft 137 kts 97°
2026-04-26 19:21 35.74331 -6.04601 2112 ft 124 kts 98°
2026-04-26 19:22 35.74209 -6.03562 1944 ft 120 kts 99°
2026-04-26 19:22 35.74083 -6.02599 1770 ft 117 kts 98°
2026-04-26 19:22 35.73982 -6.01642 1575 ft 112 kts 96°
2026-04-26 19:22 35.73900 -6.00687 1351 ft 114 kts 95°
2026-04-26 19:23 35.73823 -5.99703 1067 ft 116 kts 94°
2026-04-26 19:23 35.73760 -5.98709 824 ft 117 kts 93°
2026-04-26 19:23 35.73664 -5.97702 658 ft 119 kts 95°
2026-04-26 19:23 35.73558 -5.96668 504 ft 121 kts 94°
2026-04-26 19:24 35.73495 -5.95633 360 ft 121 kts 94°
2026-04-26 19:24 35.73396 -5.94628 180 ft 116 kts 96°
2026-04-26 19:24 35.73376 -5.94443 151 ft 117 kts 95°
2026-04-26 19:25 35.73370 -5.94382 142 ft 117 kts 95°
2026-04-26 19:25 35.73249 -5.93029 56 ft 86 kts 97°
2026-04-26 19:25 35.73196 -5.92446 61 ft 55 kts 96°
2026-04-26 19:26 35.73164 -5.92057 60 ft 33 kts 97°
2026-04-26 19:26 35.73119 -5.91808 56 ft 21 kts 120°
2026-04-26 19:26 35.72990 -5.91732 60 ft 22 kts 180°
2026-04-26 19:26 35.72837 -5.91716 60 ft 23 kts 176°
2026-04-26 19:27 35.72670 -5.91700 60 ft 25 kts 177°
2026-04-26 19:27 35.72493 -5.91680 60 ft 26 kts 162°
2026-04-26 19:27 35.72423 -5.91553 56 ft 14 kts 84°
2026-04-26 19:27 35.72432 -5.91431 60 ft 14 kts 85°
2026-04-26 19:28 35.72437 -5.91347 60 ft 15 kts 86°
2026-04-26 19:28 35.72451 -5.91250 60 ft 9 kts 50°
2026-04-26 19:28 35.72498 -5.91247 60 ft 6 kts 349°
2026-04-26 19:28 35.72524 -5.91250 60 ft 0 kts 355°